{"data":{"norad_id":47158,"epoch":"2026-08-12T04:01:59.422368Z","epoch_age_seconds":3420196,"freshness":"OLD","line1":"1 47158U 20088AN  26224.16804887  .11506336  12532-4  36898-3 0  9990","line2":"2 47158  53.0170 210.1923 0004036 303.3808  56.6854 16.44739971316857","mean_motion":16.44739971,"eccentricity":0.0004036,"inclination_deg":53.017,"raan_deg":210.1923,"arg_perigee_deg":303.3808,"mean_anomaly_deg":56.6854,"bstar":0.00036898,"rev_number":31685,"period_min":87.551833444194,"perigee_km":150.58776315696,"apogee_km":155.85987761117,"semimajor_km":6531.3608203841,"source":"CELESTRAK","updated_at":"2026-08-12T09:01:07.757791Z"}}